Cleveland, Oklahoma, United States (74020)
Lat: 36.31N, Lon: 96.46W
Wx Zone: OKZ059
Local Info
Past Weather Observations for Today

NOTE: This archive is for the closest National Weather Service station to Cleveland. Information may differ from the station used for current weather conditions.

Click here for Long-term Archive

Time Weather Temperature Dewpoint Humidity Pressure Winds Precip Visibility
21:55
Clear
81°F / 27°C 72°F / 22°C 74% 29.92 in
(1013 mb)
SSE 9.2 mph
(SSE 15 kph)
-
21:35
Partly Cloudy
81°F / 27°C 72°F / 22°C 74% 29.92 in
(1013 mb)
SSE 9.2 mph
(SSE 15 kph)
-
21:15
Clear
82°F / 28°C 70°F / 21°C 66% 29.92 in
(1013 mb)
SSE 6.9 mph
(SSE 11 kph)
-
20:55
Clear
82°F / 28°C 70°F / 21°C 66% 29.92 in
(1013 mb)
SSE 8.1 mph
(SSE 13 kph)
-
20:35
Partly Cloudy
84°F / 29°C 72°F / 22°C 66% 29.92 in
(1013 mb)
SSE 8.1 mph
(SSE 13 kph)
-
20:15
Partly Cloudy
84°F / 29°C 72°F / 22°C 66% 29.89 in
(1012 mb)
SSE 8.1 mph
(SSE 13 kph)
-
19:55
Partly Cloudy
86°F / 30°C 72°F / 22°C 62% 29.89 in
(1012 mb)
SSE 6.9 mph
(SSE 11 kph)
-
19:35
Partly Cloudy
86°F / 30°C 70°F / 21°C 59% 29.89 in
(1012 mb)
SSE 8.1 mph
(SSE 13 kph)
-
19:15
Clear
86°F / 30°C 70°F / 21°C 59% 29.89 in
(1012 mb)
S 10.4 mph
(S 17 kph)
-
18:55
Clear
88°F / 31°C 70°F / 21°C 55% 29.86 in
(1011 mb)
S 11.5 mph
(S 19 kph)
-
18:35
Partly Cloudy
90°F / 32°C 72°F / 22°C 55% 29.89 in
(1012 mb)
S 13.8 mph
(S 22 kph)
-
18:15
Partly Cloudy
90°F / 32°C 72°F / 22°C 55% 29.86 in
(1011 mb)
SSE 12.7 mph
(SSE 20 kph)
-
17:55
Partly Cloudy
90°F / 32°C 72°F / 22°C 55% 29.86 in
(1011 mb)
S 13.8 mph
(S 22 kph)
-
17:35
Partly Cloudy
91°F / 33°C 72°F / 22°C 52% 29.86 in
(1011 mb)
S 13.8 mph
(S 22 kph)
-
17:15
Partly Cloudy
91°F / 33°C 72°F / 22°C 52% 29.89 in
(1012 mb)
S 13.8 mph
(S 22 kph)
-
16:55
Clear
91°F / 33°C 72°F / 22°C 52% 29.89 in
(1012 mb)
S 12.7 mph
(S 20 kph)
-
16:35
Partly Cloudy
91°F / 33°C 70°F / 21°C 49% 29.89 in
(1012 mb)
S 12.7 mph
(S 20 kph)
-
16:15
Partly Cloudy
93°F / 34°C 72°F / 22°C 49% 29.89 in
(1012 mb)
S 10.4 mph
(S 17 kph)
-
15:55
Clear
93°F / 34°C 70°F / 21°C 47% 29.89 in
(1012 mb)
S 13.8 mph
(S 22 kph)
-
15:35
Clear
93°F / 34°C 68°F / 20°C 44% 29.89 in
(1012 mb)
SW 12.7 mph
(SW 20 kph)
-
15:15
Clear
93°F / 34°C 68°F / 20°C 44% 29.89 in
(1012 mb)
S 18.4 mph
(S 30 kph)
-
14:55
Clear
93°F / 34°C 68°F / 20°C 44% 29.89 in
(1012 mb)
S 19.6 mph
(S 32 kph)
-
14:35
Clear
93°F / 34°C 70°F / 21°C 47% 29.89 in
(1012 mb)
S 15 mph
(S 24 kph)
-
14:15
Clear
91°F / 33°C 70°F / 21°C 49% 29.92 in
(1013 mb)
S 15 mph
(S 24 kph)
-
13:55
Partly Cloudy
91°F / 33°C 72°F / 22°C 52% 29.92 in
(1013 mb)
S 13.8 mph
(S 22 kph)
-
13:35
Clear
91°F / 33°C 72°F / 22°C 52% 29.92 in
(1013 mb)
S 10.4 mph
(S 17 kph)
-
13:15
Clear
91°F / 33°C 72°F / 22°C 52% 29.92 in
(1013 mb)
SSE 15 mph
(SSE 24 kph)
-
12:55
Partly Cloudy
90°F / 32°C 72°F / 22°C 55% 29.92 in
(1013 mb)
SSE 16.1 mph
(SSE 26 kph)
-
12:35
Partly Cloudy
90°F / 32°C 72°F / 22°C 55% 29.95 in
(1014 mb)
S 10.4 mph
(S 17 kph)
-
12:15
Partly Cloudy
90°F / 32°C 72°F / 22°C 55% 29.95 in
(1014 mb)
SW 15 mph
(SW 24 kph)
-
11:55
Clear
88°F / 31°C 72°F / 22°C 59% 29.95 in
(1014 mb)
S 16.1 mph
(S 26 kph)
-
11:35
Clear
88°F / 31°C 72°F / 22°C 59% 29.95 in
(1014 mb)
SW 18.4 mph
(SW 30 kph)
-
11:15
Clear
88°F / 31°C 72°F / 22°C 59% 29.95 in
(1014 mb)
SSE 12.7 mph
(SSE 20 kph)
-
10:55
Clear
88°F / 31°C 72°F / 22°C 59% 29.95 in
(1014 mb)
S 16.1 mph
(S 26 kph)
-
10:35
Partly Cloudy
86°F / 30°C 73°F / 23°C 66% 29.95 in
(1014 mb)
S 17.3 mph
(S 28 kph)
-
10:15
Clear
86°F / 30°C 72°F / 22°C 62% 29.95 in
(1014 mb)
SSE 17.3 mph
(SSE 28 kph)
-
09:55
Partly Cloudy
86°F / 30°C 73°F / 23°C 66% 29.95 in
(1014 mb)
S 17.3 mph
(S 28 kph)
-
09:35
Partly Cloudy
84°F / 29°C 72°F / 22°C 66% 29.95 in
(1014 mb)
SSE 19.6 mph
(SSE 32 kph)
-
09:15
Partly Cloudy
84°F / 29°C 73°F / 23°C 70% 29.92 in
(1013 mb)
SSE 18.4 mph
(SSE 30 kph)
-
08:55
Clear
81°F / 27°C 73°F / 23°C 79% 29.92 in
(1013 mb)
S 15 mph
(S 24 kph)
-
08:35
Clear
79°F / 26°C 72°F / 22°C 79% 29.95 in
(1014 mb)
S 13.8 mph
(S 22 kph)
-
08:15
Clear
77°F / 25°C 72°F / 22°C 83% 29.92 in
(1013 mb)
S 13.8 mph
(S 22 kph)
-
07:55
Fair
77°F / 25°C 72°F / 22°C 83% 29.92 in
(1013 mb)
S 12.7 mph
(S 20 kph)
-
07:35
Fair
73°F / 23°C 72°F / 22°C 94% 29.92 in
(1013 mb)
S 10.4 mph
(S 17 kph)
-
07:15
Fair
73°F / 23°C 72°F / 22°C 94% 29.92 in
(1013 mb)
S 8.1 mph
(S 13 kph)
-
06:55
Fair
73°F / 23°C 70°F / 21°C 89% 29.92 in
(1013 mb)
S 8.1 mph
(S 13 kph)
-
06:35
Fair
72°F / 22°C 70°F / 21°C 94% 29.92 in
(1013 mb)
S 6.9 mph
(S 11 kph)
-
06:15
Fair
70°F / 21°C 70°F / 21°C 100% 29.92 in
(1013 mb)
S 6.9 mph
(S 11 kph)
-
05:55
Fair
70°F / 21°C 70°F / 21°C 100% 29.92 in
(1013 mb)
S 6.9 mph
(S 11 kph)
-
05:35
Fair
72°F / 22°C 70°F / 21°C 94% 29.89 in
(1012 mb)
SSE 5.8 mph
(SSE 9 kph)
-
05:15
Fair
72°F / 22°C 70°F / 21°C 94% 29.89 in
(1012 mb)
S 4.6 mph
(S 7 kph)
-
04:55
Fair
72°F / 22°C 70°F / 21°C 94% 29.89 in
(1012 mb)
S 4.6 mph
(S 7 kph)
-
04:35
Fair
72°F / 22°C 70°F / 21°C 94% 29.89 in
(1012 mb)
S 4.6 mph
(S 7 kph)
-
04:15
Fair
72°F / 22°C 70°F / 21°C 94% 29.89 in
(1012 mb)
S 5.8 mph
(S 9 kph)
-
03:55
Fair
72°F / 22°C 70°F / 21°C 94% 29.89 in
(1012 mb)
S 4.6 mph
(S 7 kph)
-
03:35
Fair
72°F / 22°C 70°F / 21°C 94% 29.89 in
(1012 mb)
S 3.5 mph
(S 6 kph)
-
03:15
Fair
72°F / 22°C 70°F / 21°C 94% 29.89 in
(1012 mb)
S 4.6 mph
(S 7 kph)
-
02:55
Fair
72°F / 22°C 70°F / 21°C 94% 29.89 in
(1012 mb)
S 3.5 mph
(S 6 kph)
-
02:35
Fair
72°F / 22°C 70°F / 21°C 94% 29.89 in
(1012 mb)
S 4.6 mph
(S 7 kph)
-
02:15
Fair
72°F / 22°C 70°F / 21°C 94% 29.89 in
(1012 mb)
Calm -
01:55
Fair
73°F / 23°C 72°F / 22°C 94% 29.89 in
(1012 mb)
S 3.5 mph
(S 6 kph)
-
01:35
Fair
73°F / 23°C 72°F / 22°C 94% 29.89 in
(1012 mb)
Calm -
01:15
Fair
72°F / 22°C 72°F / 22°C 100% 29.89 in
(1012 mb)
Calm -
00:55
Fair
73°F / 23°C 72°F / 22°C 94% 29.89 in
(1012 mb)
Calm -
00:35
Fair
73°F / 23°C 72°F / 22°C 94% 29.89 in
(1012 mb)
Calm -
00:15
Fair
73°F / 23°C 72°F / 22°C 94% 29.89 in
(1012 mb)
Calm -
Time Weather Temperature Dewpoint Humidity Pressure Winds Precip Visibility


Weather for websites

WeatherForYou.com, LLC is not responsible for any damages or problems caused by this service. Current weather conditions are obtained from the closest station including government and personal stations which may have varying degrees of accuracy. Weather forecasts are derived from the NOAA NDFD. Like all things, this site belongs to Jesus Christ... He just trusts me to maintain it. If you have any questions or comments email webmaster@weatherforyou.com

Copyright © 2014, WeatherForYou.com LLC. All rights reserved.